Flag for U.S.A. Weather past 2 weeks in Inglewood, California, U.S.A.

Now
72 °F

Overcast.


Feels Like: 73 °F
Forecast: 67 / 79 °F
Wind: 5 mph from West

Location: Hawthorne Municipal Airport

Current Time: Aug 31, 2015 at 11:17:02 PM

Latest Report: Aug 31, 2015 at 10:53 PM


Visibility: 10 mi

Pressure: 29.90 "Hg

Humidity: 76%

Dew point: 64 °F

Location of InglewoodLocation

Historic Weather in Inglewood — Graph

°F

Inglewood temperature yesterday

Maximum temperature yesterday: 84 °F (at 11:53 AM)
Minimum temperature yesterday: 73 °F (at 4:53 AM)
Average temperature yesterday: 77 °F

Past Weeks' High & Low Weather Summary

 TemperatureHumidityPressure
High91 °F (Aug 28, 12:53 PM)88% (Aug 26, 3:53 AM)29.99 "Hg (Aug 26, 3:53 AM)
Low68 °F (Aug 23, 2:53 AM)33% (Aug 28, 12:53 PM)29.81 "Hg (Aug 28, 6:53 PM)
Average75 °F69%29.89 "Hg
* Reported Aug 16 9:53 PM — Aug 31 9:53 PM, Inglewood, Weather by CustomWeather, © 2015

Note: Actual official high and low records may vary slightly from our data, if they occured in-between our weather recording intervals... More about our weather records

Advertising

Inglewood weather history for previous 24 hours

 ConditionsComfort  
Time TempWeatherWind HumidityBarometerVisibility
9:53 PM
Mon, Aug 31
72 °FOvercast.6 mph76%29.89 "Hg10 mi
8:53 PM73 °FMostly cloudy.6 mph76%29.88 "Hg10 mi
7:53 PM73 °FPartly sunny.6 mph79%29.85 "Hg10 mi
6:53 PM75 °FPassing clouds.9 mph71%29.84 "Hg10 mi
5:53 PM76 °FSunny.8 mph64%29.84 "Hg10 mi
4:53 PM77 °FSunny.10 mph62%29.85 "Hg10 mi
3:53 PM79 °FSunny.13 mph58%29.86 "Hg10 mi
2:53 PM79 °FSunny.9 mph56%29.88 "Hg10 mi
1:53 PM80 °FSunny.9 mph54%29.88 "Hg10 mi
12:53 PM79 °FSunny.7 mph52%29.90 "Hg10 mi
11:53 AM77 °FSunny.7 mph58%29.91 "Hg10 mi
10:53 AM75 °FPassing clouds.6 mph64%29.92 "Hg10 mi
9:53 AM73 °FOvercast.5 mph71%29.91 "Hg10 mi
8:53 AM72 °FOvercast.6 mph76%29.90 "Hg10 mi
7:53 AM72 °FOvercast.6 mph76%29.89 "Hg10 mi
6:53 AM72 °FOvercast.6 mph76%29.87 "Hg10 mi
5:53 AM72 °FPassing clouds.3 mph76%29.86 "Hg10 mi
4:53 AM71 °FOvercast.5 mph81%29.85 "Hg10 mi
3:53 AM71 °FClear.5 mph81%29.83 "Hg10 mi
2:53 AM71 °FClear.No wind78%29.84 "Hg10 mi
1:53 AM72 °FClear.No wind76%29.84 "Hg10 mi
12:53 AM72 °FClear.No wind76%29.85 "Hg10 mi
11:53 PM
Sun, Aug 30
73 °FClear.No wind76%29.84 "Hg10 mi
Weather by CustomWeather, © 2015

See weather overviewHow to use our weather pages